Regional Weather Roundup
Issued by NWS Pendleton, OR

Home | Current Version | Previous Version | Text Only | Print | Product List | Glossary On
Versions: 1 2 3 4 5 6 7 8 9 10 11 12 13 14 15 16 17 18 19 20 21 22 23 24 25 26 27 28 29 30 31 32 33 34 35 36 37 38 39 40 41 42 43 44 45 46 47 48 49 50
000
ASUS46 KPDT 201625
RWRPDT
PENDLETON REGIONAL WEATHER ROUNDUP
NATIONAL WEATHER SERVICE PENDLETON OREGON
800 AM PST FRI JAN 20 2017

NOTE: FAIR INDICATES FEW OR NO CLOUDS BELOW 12,000 FEET WITH NO
SIGNIFICANT WEATHER AND/OR OBSTRUCTIONS TO VISIBILITY.

# INDICATES UNOFFICIAL STATION AND DATA

WAZ520-201710-
EAST SLOPES OF WASHINGTON CASCADES

CITY            SKY/WX      TMP DP  RH  WIND    PRES   REMARKS
#CLE ELUM HS    N/A         31  29  92  SE2     29.28F
#CLE ELUM LAKE  N/A         28  27  96  SE1     29.32F
#GLENWOOD       N/A         35  33  92  N3      29.25F
#NELSON 3SW     N/A         26  25  96  CALM    29.53F
#NILE           N/A         31  29  92  NE1     28.59F
#RONALD 2NW     N/A         27  N/A N/A E2      29.16F
#TEANAWAY 4NE   N/A         29  29  100 CALM    N/A
#TROUT LAKE 1NE N/A         33  32  96  CALM    29.24F
#TROUT LAKE 1E  N/A         32  31  96  CALM    29.22F
$$

WAZ521-201710-
SIMCOE HIGHLANDS

CITY            SKY/WX      TMP DP  RH  WIND    PRES   REMARKS
#BICKLETON HS   N/A         30  28  92  NE7     28.91F
#CENTERVILLE 1SWN/A         36  29  75  E16     29.23F WCI 26
#GOLDENDALE 1NE N/A         40  20  44  NE9     N/A
#GOLDENDALE 4W  N/A         36  12  36  E9      29.25F
#GOODNOE HILLS  N/A         32  28  85  E8      N/A
#LYLE 6NE       N/A         30  29  96  CALM    29.21F
#PITT 4SE       N/A         33  29  85  NE7     29.26F
$$

WAZ026-201710-
KITTITAS VALLEY

CITY            SKY/WX      TMP DP  RH  WIND    PRES   REMARKS
ELLENSBURG AP   CLOUDY      31  28  88  CALM    29.29F
#ELLENSBURG CWU N/A         29  28  96  CALM    29.30F
#ELLENSBURG 3NE N/A         28  27  96  CALM    27.42F
#ELLENSBURG 1E  N/A         28  N/A N/A CALM    N/A
#KITTITAS 4N    N/A         28  25  88  SW2     29.35F
#KITTITAS 3S    N/A         28  27  96  CALM    29.35F
#THORP 6N       N/A         28  27  96  SE2     29.38F
$$

WAZ027-201710-
YAKIMA VALLEY

CITY            SKY/WX      TMP DP  RH  WIND    PRES   REMARKS
SUNNYSIDE AP    FOG         N/A N/A N/A CALM    29.33F VSB<1/4
YAKIMA AIRPORT  CLOUDY      28  26  92  NW6     29.32F
YAKIMA-VAGABOND LGT SNOW    28  27  96  S3      29.28F
#DONALD 2NE     N/A         27  20  74  N8      28.17F
#NACHES 2SW     N/A         31  30  96  NE2     29.33S
#TERRACE HTS    N/A         28  27  96  CALM    29.34F
#TOPPENISH      N/A         22  20  92  CALM    29.30F
#WEST VALLEY    N/A         27  25  92  CALM    29.36
#W YAKIMA       N/A         28  27  96  CALM    29.37F
#WHITE SWAN 5E  N/A         21  20  96  CALM    29.38F
#WILEY CITY 3W  N/A         27  23  85  CALM    29.28F
$$

WAZ028-201710-
LOWER COLUMBIA BASIN...WASHINGTON

CITY            SKY/WX      TMP DP  RH  WIND    PRES   REMARKS
HANFORD         CLOUDY      31  30  96  NW12    29.34F WCI 22
PASCO           FRZFOG      25  25  100 CALM    29.36F VSB<1/4
PROSSER AWOS    N/A         25  25  100 SW5     29.37F
RICHLAND AWOS   MOCLDY      26  26  100 CALM    29.36F FOG
#BENTON CITY    N/A         25  23  92  CALM    29.28F
#CONNELL 5N     N/A         23  21  92  CALM    29.36F
#CONNELL 5NW    N/A         22  21  96  N7      29.33F
#ELTOPIA 6NW    N/A         27  26  96  CALM    28.32F
#KAHLOTUS       N/A         34  31  89  S8      29.34F
#KENNEWICK 3S   N/A         28  27  96  CALM    29.37F
#PATERSON       N/A         25  24  96  CALM    29.29F
#SAGEMOOR 2W    N/A         27  25  92  N6      29.20F
#TOUCHET 2S     N/A         26  25  96  NW3     29.34F
#WEST PASCO     N/A         27  25  92  CALM    29.28F
$$

WAZ029-201710-
FOOTHILLS OF THE BLUES...WASHINGTON

CITY            SKY/WX      TMP DP  RH  WIND    PRES   REMARKS
WALLA WALLA AP  PTCLDY      26  24  92  VRB3    29.29F FOG
#CLYDE 6NW      N/A         34  30  85  CALM    29.32F
#DAYTON SCHOOL  N/A         38  23  54  CALM    29.34F
#LOWDEN 2SE     N/A         24  23  96  NW5     29.30F
#PLEASANT VIEW 1N/A         33  31  92  N7      29.38F
#PRESCOTT       N/A         35  31  85  CALM    29.31F
#WHITMAN COLLEGEN/A         24  22  92  S2      29.36F
#WAITSBURG 5S   N/A         42  30  62  SE2     29.39F
#WAITSBURG 8N   N/A         41  N/A N/A N5      29.14F
#WALLA WALLA 5E N/A         30  25  81  S5      N/A
#WHITMAN MISSIONN/A         25  23  92  W1      29.36F
$$

WAZ030-201710-
BLUE MOUNTAINS...WASHINGTON

CITY            SKY/WX      TMP DP  RH  WIND    PRES   REMARKS
#DIXIE 5SE      N/A         40  26  57  E36G46  29.14F WCI 28
#SKI BLUEWOOD   N/A         27  24  88  S2      29.27F
$$

ORZ009-041-WAZ024-201710-
COLUMBIA RIVER GORGE

CITY            SKY/WX      TMP DP  RH  WIND    PRES   REMARKS
HOOD RIVER AP   CLOUDY      32  32  100 NW5     29.24F FOG
THE DALLES AP   CLOUDY      30  29  96  CALM    29.28F FOG
#ARLINGTON AIRPON/A         34  31  89  NE12    29.30F WCI 25
#ARLINGTON HS   N/A          0   0  100 SE8     29.20F
#CELILO DOT     N/A         31  29  92  CALM    N/A
#LYLE           N/A         33  30  89  E14     29.28F WCI 23
#MOSIER 1S      N/A         30  28  92  CALM    29.23F
#MURDOCK        N/A         30  29  96  E3      29.25F
#RUFUS DOT      N/A         27  27  100 SE5     N/A
#SMITHVILLE     N/A         30  29  96  N2      29.24F

$$

ORZ510-201710-
NORTH CENTRAL OREGON

CITY            SKY/WX      TMP DP  RH  WIND    PRES   REMARKS
#ANTELOPE       N/A         37  29  72  E2      29.08F
#CHENOWITH 1W   N/A         28  28  100 E9      N/A
#COW CYN RST AREN/A         34  N/A N/A NE6     N/A
#DUFUR 9E       N/A         32  29  89  E21     29.27F WCI 20
#GRASS VALLEY 1SN/A         29  28  96  NE3     29.18F
#KENT DOT       N/A         34  23  64  N3      N/A
#SHANIKO 5WSW   N/A         32  24  72  N16     N/A    WCI 21
#SHANIKO 4NW    N/A         32  28  85  SE21G28 29.14F WCI 20
#TYGH VALLEY 2NEN/A         27  25  92  CALM    29.26F
#WAPANITIA AIRPON/A         30  28  92  CALM    29.26F
#WASCO DOT      N/A         32  28  85  E12     N/A    WCI 23
#WASCO 5NE      N/A         28  26  92  N3      29.28F
$$

ORZ511-201710-
CENTRAL OREGON

CITY            SKY/WX      TMP DP  RH  WIND    PRES   REMARKS
BEND AIRPORT    CLOUDY      36  28  72  E9      29.12F
MADRAS AIRPORT  CLOUDY      34  30  85  CALM    29.17F
PRINEVILLE AP   CLOUDY      37  30  75  E8      29.15F
REDMOND AIRPORT CLOUDY      38  27  64  E10     29.13F
#ASHWOOD SCHOOL N/A         39  32  76  SE3     29.19F
#BEND 1SW       N/A         30  28  92  CALM    N/A
#BEND-AWBREY    N/A         34  31  89  CALM    29.17F
#BEND-KIM LN    N/A         34  30  85  S2      29.12F
#CULVER         N/A         37  29  72  E3      29.11F
#CULVER 8W      N/A         32  29  89  CALM    29.23F
#MADRAS 4S      N/A         39   3  22  SE23    29.26F WCI 28
#POWELL BUTTE   N/A         36  25  64  E15     29.18F WCI 27
#PRINEVILLE 3N  N/A         37  31  79  E14     29.18F WCI 28
#WARM SPRINGS   N/A         31  29  92  CALM    29.18F

$$


ORZ509-201710-
EAST SLOPES OF OREGON CASCADES

CITY            SKY/WX      TMP DP  RH  WIND    PRES   REMARKS
SISTERS AWOS    N/A         34  30  85  NE8     29.16F
#BLUE BOX PASS  N/A         29  N/A N/A CALM    N/A
#CAMP SHERMAN   N/A         30  28  92  CALM    29.26F
#LA PINE 4NW    N/A         33  27  78  CALM    29.20F
#LAVA BUTTE DOT N/A         33  22  63  CALM    N/A
#SISTERS ODOT   N/A         33  N/A N/A CALM    N/A
#SISTERS 3N     N/A         33  26  75  E6      29.20F
#SUNRIVER       N/A         34  30  85  SW1     29.17F
#SUTTLE LK DOT  N/A         26  26  100 E16G28  N/A    WCI 14
#TUMALO 3W      N/A         33  29  85  SE5     29.05F
#WANOGA BUTTE D N/A         25  25  100 CALM    N/A

$$

ORZ044-201710-
LOWER COLUMBIA BASIN...OREGON

CITY            SKY/WX      TMP DP  RH  WIND    PRES   REMARKS
HERMISTON       CLOUDY      30  28  92  N8      29.27F FOG
#BOARDMAN SCHOOLN/A         25  24  96  CALM    29.31F
#ECHO 8SW       N/A         27  27  100 NW2     29.28F
#I-84 EX 198 DOTN/A         42  31  65  N24     N/A    WCI 32
#UMATILLA       N/A         33  30  89  E2      29.24F
$$

ORZ507-201710-
NORTHERN FOOTHILLS OF THE BLUES

CITY            SKY/WX      TMP DP  RH  WIND    PRES   REMARKS
PENDLETON AIRPT CLOUDY      42  30  62  SE15G25 29.26F WCI 34
#ADAMS 3WNW     N/A         41  32  70  E6      29.28F
#ATHENA         N/A         42  31  65  SE7     29.30F
#CAYUSE         N/A         44  32  62  E40G53  29.21  WCI 33
#HELIX SCHOOL   N/A         40  32  73  N22G31  29.29F WCI 30
#HELIX 3N       N/A         40  31  70  N15     29.27F WCI 32
#HOLDMAN 6E     N/A         41  33  73  S5      29.09F
#M-F GROVE ELEM N/A         25  21  84  N1      29.28F
#PENDLETON DNTN N/A         45  29  53  W2      29.27F
#PDT AQUATIC CTRN/A         44  30  58  SE1     29.28F
#PDT SUNRIDGE   N/A         42  31  65  SE2     29.28F
#PENDLETON 7NW  N/A         40  31  70  SE13    32.00S WCI 32
#PILOT ROCK     N/A         41  29  62  E2      29.30F
#TUTUILLA       N/A         44  32  62  CALM    29.24F
#WESTON SCHOOL  N/A         42  27  55  S15G29  29.18F WCI 34

$$

ORZ508-201710-
SOUTHERN FOOTHILLS OF THE BLUES

CITY            SKY/WX      TMP DP  RH  WIND    PRES   REMARKS
#AJAX           N/A         28  21  75  N8      27.17S
#CONDON SCHOOL  N/A         38  29  70  SE10    29.21F
#FOSSIL SCHOOL  N/A         40  29  64  SE5     29.19F
#HEPPNER EOC    N/A         43  28  55  SE8     29.15F
#HEPPNER 4NE    N/A         41  27  57  E13     29.23F WCI 34
#LEXINGTON 2SE  N/A         35  28  75  NW3     29.18F
#MIKKALO        N/A         28  25  88  CALM    29.36F
#OLEX 4N        N/A         26  25  96  E5      29.26F
#RUGGS 5NE      N/A         38  23  54  N7      29.36S
#RUGGS 2SW      N/A         38  27  64  SE18G28 29.25F WCI 28

$$

ORZ502-503-201710-
BLUE MOUNTAINS

CITY            SKY/WX      TMP DP  RH  WIND    PRES   REMARKS
MEACHAM         MOCLDY      32  25  75  MISG    29.26F
#BATTLE MTN DOT N/A         30  22  72  S14     N/A    WCI 19
#GREENHORN 9SW  N/A         31  28  88  E6      25.56F
#HEPPNER 15SE   N/A         33  25  72  SE5     N/A
#LADD CYN SMT   N/A         30  29  96  SE16    N/A    WCI 19
#LADD CREEK ODOTN/A         34  28  78  S8      N/A
#LONG CREEK HS  N/A         35  30  82  SE17G30 N/A    WCI 25
#N POWDER DOT   N/A         32  29  89  S30     N/A    WCI 18
#PIKES PEAK     N/A         38  25  59  N35G46  27.99S WCI 25
#TOLLGATE       N/A         25  24  96  E3      29.23F
#TROY SCHOOL    N/A         31  29  92  CALM    29.30F
#UKIAH          N/A         35  28  75  SE12    29.24S WCI 27
#WESTON 4E      N/A         35  29  78  SE23G35 29.27F WCI 23
$$

ORZ505-201710-
JOHN DAY BASIN

CITY            SKY/WX      TMP DP  RH  WIND    PRES   REMARKS
JOHN DAY        CLOUDY      38  27  64  SW10    29.24F
#ANTELOPE 9ESE  N/A         33  29  85  CALM    N/A
#DAYVILLE SCHOOLN/A         38  27  64  SE3     29.26F
#MITCHELL       N/A         37  32  82  E3      29.39F
#MITCHELL 8NW   N/A         35  28  75  SE1     29.04F
#MONUMENT HS    N/A         28  24  85  CALM    29.27F
#MT. VERNON 5SE N/A         32  26  78  E1      29.19F
#SPRAY SCHOOL   N/A         30  N/A N/A CALM    N/A
$$

ORZ506-201710-
OCHOCO AND JOHN DAY HIGHLANDS

CITY            SKY/WX      TMP DP  RH  WIND    PRES   REMARKS
#HORSE RIDGE DO N/A         33  26  75  E22     N/A    WCI 21
#KEYES SMT DOT  N/A         30  26  85  E14     N/A    WCI 19
#PAULINA SCHOOL N/A         35  29  78  E13     N/A    WCI 26
#PINE MTN OBS   N/A         24  23  96  CALM    N/A
#SENECA         N/A         29  N/A N/A SW5     N/A
#SENECA 9NW     N/A         27  25  92  CALM    29.32F
$$

ORZ049-201710-
GRANDE RONDE VALLEY

CITY            SKY/WX      TMP DP  RH  WIND    PRES   REMARKS
LA GRANDE       CLOUDY      37  28  70  SE22G31 29.32F WCI 26
#COVE           N/A         31  30  96  N7      29.41S
#COVE 6NW       N/A         34  30  85  SE3     29.41S
#ELGIN 3N       N/A         29  24  81  CALM    29.39F
#ELGIN 1E       N/A         31  27  85  CALM    N/A
#IMBLER SCHOOL  N/A         29  27  92  CALM    29.37F
#ISLAND CITY 4N N/A         41  38  89  E6      29.10F
#LADD CYN DOT   N/A         35  30  82  S6      N/A
#UNION 1S       N/A         35  31  85  S14     29.41S WCI 26
$$

ORZ050-201710-
WALLOWA COUNTY

CITY            SKY/WX      TMP DP  RH  WIND    PRES   REMARKS
JOSEPH AIRPORT  PTCLDY      21  19  92  S3      29.30F
#IMNAHA SCHOOL  N/A         31  30  96  CALM    29.44F
#IMNAHA 10S     N/A         26  24  92  CALM    29.43F
#JOSEPH 3N      N/A         21  16  81  CALM    29.39F
#JOSEPH 3W      N/A         26  22  85  CALM    29.21F
#LOSTINE        N/A         25  24  96  CALM    29.24F
#LOSTINE 3SE    N/A         23  23  100 N2      29.36F
#MT HOWARD 8000 N/A         18  15  88  S20G30  29.13F WCI  2
#PROMISE 1S     N/A         27  26  96  CALM    29.52F
#WALLOWA SCHOOL N/A         27  26  96  CALM    29.38F



$$



USA.gov is the U.S. government's official web portal to all federal, state and local government web resources and services.